Cape May, NJ

2:05 PM EST on February 27, 2017 (GMT -0500)
Cape May County

Weather History for KWWD - November, 2012

Change the Weather History Date:

Tuesday, November 6, 2012

  Actual Average Record
Temperature  
Mean Temperature 40 °F -  
Max Temperature 48 °F 56 °F 73 °F (2015)
Min Temperature 33 °F 42 °F 30 °F (2006)
Degree Days  
Heating Degree Days 24    
Moisture  
Dew Point 27 °F    
Average Humidity 58    
Maximum Humidity 65    
Minimum Humidity 50    
Precipitation  
Precipitation 0.00 in - - ()
Sea Level Pressure  
Sea Level Pressure 30.09 in    
Wind  
Wind Speed 10 mph (NNE)    
Max Wind Speed 18 mph    
Max Gust Speed 24 mph    
Visibility 10 miles    
Events      
Averages and records for this station are not official NWS values.
T = Trace of Precipitation, MM = Missing Value Source: NWS Daily Summary

Daily Weather History Graph

Daily Weather History Graph

Search for Another Location

Airport or City:

Trip Planner

Search our weather history database for the weather conditions in past years. The results will help you decide how hot, cold, wet, or windy it might be!

Date:

Astronomy

Nov. 06, 2012 Rise Set
Actual Time 6:33 AM EST 4:53 PM EST
Civil Twilight 6:05 AM EST 5:21 PM EST
Nautical Twilight 5:33 AM EST 5:52 PM EST
Astronomical Twilight 5:01 AM EST 6:24 PM EST
Moon 11:28 PM EST (11/6) 12:24 PM EST (11/6)
Length of Visible Light 11h 16m
Length of Day
10h 20m
Waning Gibbous, 53% of the Moon is Illuminated
Nov 6
Waning Gibbous
Nov 6
Last Quarter
Nov 13
New
Nov 20
First Quarter
Nov 28
Full

Hourly Weather History & Observations

Time (EST) Temp. Windchill Dew Point Humidity Pressure Visibility Wind Dir Wind Speed Gust Speed Precip Events Conditions
12:15 AM 33.8 °F 29.6 °F 23.0 °F 65% 30.16 in - North 4.6 mph - N/A   Clear
12:35 AM 33.8 °F 27.0 °F 21.2 °F 60% 30.16 in 10.0 mi NNE 8.1 mph - N/A   Clear
12:55 AM 33.8 °F 25.8 °F 21.2 °F 60% 30.15 in 10.0 mi NNE 10.4 mph - N/A   Clear
1:15 AM 33.8 °F 25.3 °F 21.2 °F 60% 30.15 in 10.0 mi NNE 11.5 mph - N/A   Clear
1:35 AM 33.8 °F 25.3 °F 19.4 °F 56% 30.15 in 10.0 mi NNE 11.5 mph - N/A   Clear
1:55 AM 33.8 °F 25.3 °F 19.4 °F 56% 30.15 in 10.0 mi North 11.5 mph - N/A   Clear
2:15 AM 33.8 °F 26.4 °F 19.4 °F 56% 30.15 in 10.0 mi North 9.2 mph - N/A   Clear
2:35 AM 33.8 °F 27.7 °F 19.4 °F 56% 30.15 in 10.0 mi North 6.9 mph - N/A   Clear
2:55 AM 33.8 °F 27.0 °F 19.4 °F 56% 30.16 in 10.0 mi North 8.1 mph - N/A   Clear
3:15 AM 33.8 °F 27.0 °F 19.4 °F 56% 30.15 in 10.0 mi North 8.1 mph - N/A   Mostly Cloudy
3:35 AM 33.8 °F 26.4 °F 19.4 °F 56% 30.15 in 10.0 mi North 9.2 mph - N/A   Overcast
3:55 AM 33.8 °F 27.7 °F 19.4 °F 56% 30.15 in 10.0 mi North 6.9 mph - N/A   Mostly Cloudy
4:15 AM 33.8 °F 27.7 °F 19.4 °F 56% 30.15 in 10.0 mi North 6.9 mph - N/A   Overcast
4:35 AM 33.8 °F 27.7 °F 19.4 °F 56% 30.15 in 10.0 mi North 6.9 mph - N/A   Overcast
4:55 AM 33.8 °F 27.0 °F 19.4 °F 56% 30.14 in 10.0 mi North 8.1 mph - N/A   Overcast
5:15 AM 33.8 °F 27.0 °F 19.4 °F 56% 30.14 in 10.0 mi North 8.1 mph - N/A   Overcast
5:35 AM 33.8 °F 27.0 °F 19.4 °F 56% 30.15 in 10.0 mi North 8.1 mph - N/A   Overcast
5:55 AM 33.8 °F 27.0 °F 19.4 °F 56% 30.14 in 10.0 mi North 8.1 mph - N/A   Overcast
6:15 AM 33.8 °F 27.7 °F 19.4 °F 56% 30.15 in 10.0 mi North 6.9 mph - N/A   Overcast
6:35 AM 33.8 °F 27.0 °F 19.4 °F 56% 30.15 in 10.0 mi North 8.1 mph - N/A   Overcast
6:55 AM 33.8 °F 26.4 °F 21.2 °F 60% 30.16 in 10.0 mi North 9.2 mph - N/A   Overcast
7:15 AM 33.8 °F 25.8 °F 21.2 °F 60% 30.16 in 10.0 mi North 10.4 mph - N/A   Mostly Cloudy
7:35 AM 33.8 °F 26.4 °F 21.2 °F 60% 30.17 in 10.0 mi North 9.2 mph - N/A   Partly Cloudy
7:55 AM 35.6 °F 28.0 °F 23.0 °F 60% 30.16 in 10.0 mi NNE 10.4 mph - N/A   Partly Cloudy
8:15 AM 35.6 °F 27.5 °F 24.8 °F 65% 30.16 in 10.0 mi NNE 11.5 mph - N/A   Clear
8:35 AM 37.4 °F 30.3 °F 24.8 °F 60% 30.15 in 10.0 mi NNE 10.4 mph - N/A   Clear
8:55 AM 39.2 °F 31.6 °F 26.6 °F 61% 30.15 in 10.0 mi NNE 12.7 mph - N/A   Clear
9:15 AM 39.2 °F 33.0 °F 26.6 °F 61% 30.15 in 10.0 mi NNE 9.2 mph - N/A   Clear
9:35 AM 42.8 °F 36.6 °F 28.4 °F 57% 30.15 in 10.0 mi NE 11.5 mph - N/A   Clear
9:55 AM 44.6 °F 38.4 °F 28.4 °F 53% 30.15 in 10.0 mi NE 12.7 mph 18.4 mph N/A   Clear
10:15 AM 46.4 °F 41.5 °F 30.2 °F 53% 30.15 in 10.0 mi NE 10.4 mph 19.6 mph N/A   Clear
10:35 AM 46.4 °F 40.4 °F 30.2 °F 53% 30.15 in 10.0 mi NE 13.8 mph 21.9 mph N/A   Clear
10:55 AM 46.4 °F 40.1 °F 30.2 °F 53% 30.15 in 10.0 mi NE 15.0 mph 23.0 mph N/A   Clear
11:15 AM 46.4 °F 40.1 °F 32.0 °F 57% 30.14 in 10.0 mi NE 15.0 mph 21.9 mph N/A   Clear
11:35 AM 46.4 °F 41.5 °F 32.0 °F 57% 30.14 in 10.0 mi ENE 10.4 mph - N/A   Partly Cloudy
11:55 AM 46.4 °F 40.4 °F 32.0 °F 57% 30.12 in 10.0 mi NE 13.8 mph - N/A   Clear
12:15 PM 46.4 °F 40.7 °F 32.0 °F 57% 30.11 in 10.0 mi ENE 12.7 mph 18.4 mph N/A   Clear
12:35 PM 48.2 °F - 32.0 °F 54% 30.11 in 10.0 mi ENE 12.7 mph 19.6 mph N/A   Clear
12:55 PM 48.2 °F - 30.2 °F 50% 30.10 in 10.0 mi NE 16.1 mph 20.7 mph N/A   Partly Cloudy
1:15 PM 46.4 °F 40.1 °F 30.2 °F 53% 30.10 in 10.0 mi NE 15.0 mph 20.7 mph N/A   Partly Cloudy
1:35 PM 48.2 °F - 30.2 °F 50% 30.08 in 10.0 mi NE 16.1 mph 20.7 mph N/A   Mostly Cloudy
1:55 PM 46.4 °F 40.1 °F 30.2 °F 53% 30.08 in 10.0 mi NE 15.0 mph 21.9 mph N/A   Mostly Cloudy
2:15 PM 46.4 °F 39.2 °F 30.2 °F 53% 30.07 in 10.0 mi NNE 18.4 mph 23.0 mph N/A   Partly Cloudy
2:35 PM 46.4 °F 39.8 °F 30.2 °F 53% 30.06 in 10.0 mi NE 16.1 mph 21.9 mph N/A   Clear
2:55 PM 46.4 °F 39.5 °F 30.2 °F 53% 30.07 in 10.0 mi NE 17.3 mph 23.0 mph N/A   Clear
3:15 PM 44.6 °F 37.8 °F 30.2 °F 57% 30.07 in 10.0 mi NE 15.0 mph 20.7 mph N/A   Clear
3:35 PM 44.6 °F 37.8 °F 32.0 °F 61% 30.06 in 10.0 mi NNE 15.0 mph 24.2 mph N/A   Partly Cloudy
3:55 PM 44.6 °F 38.4 °F 32.0 °F 61% 30.07 in 10.0 mi NE 12.7 mph 23.0 mph N/A   Partly Cloudy
4:15 PM 44.6 °F 37.8 °F 30.2 °F 57% 30.08 in 10.0 mi NE 15.0 mph 19.6 mph N/A   Partly Cloudy
4:35 PM 42.8 °F 36.2 °F 30.2 °F 61% 30.08 in 10.0 mi NE 12.7 mph - N/A   Clear
4:55 PM 42.8 °F 36.2 °F 30.2 °F 61% 30.07 in 10.0 mi NNE 12.7 mph 17.3 mph N/A   Clear
5:15 PM 42.8 °F 36.6 °F 30.2 °F 61% 30.06 in 10.0 mi NNE 11.5 mph 18.4 mph N/A   Clear
5:35 PM 42.8 °F 35.8 °F 30.2 °F 61% 30.05 in 10.0 mi NNE 13.8 mph - N/A   Clear
5:55 PM 41.0 °F 33.1 °F 30.2 °F 65% 30.04 in 10.0 mi NE 15.0 mph 19.6 mph N/A   Clear
6:15 PM 41.0 °F 33.5 °F 30.2 °F 65% 30.06 in 10.0 mi NNE 13.8 mph - N/A   Clear
6:35 PM 41.0 °F 33.9 °F 30.2 °F 65% 30.05 in 10.0 mi NE 12.7 mph - N/A   Scattered Clouds
6:55 PM 41.0 °F 33.9 °F 30.2 °F 65% 30.04 in 10.0 mi NNE 12.7 mph 19.6 mph N/A   Mostly Cloudy
7:15 PM 41.0 °F 32.8 °F 30.2 °F 65% 30.01 in 10.0 mi NNE 16.1 mph 19.6 mph N/A   Overcast
7:35 PM 41.0 °F 33.9 °F 30.2 °F 65% 30.01 in 10.0 mi NNE 12.7 mph 16.1 mph N/A   Overcast
7:55 PM 41.0 °F 33.1 °F 30.2 °F 65% 30.02 in 10.0 mi NNE 15.0 mph - N/A   Overcast
8:15 PM 42.8 °F 36.6 °F 30.2 °F 61% 30.03 in 10.0 mi NNE 11.5 mph - N/A   Overcast
8:35 PM 42.8 °F 36.6 °F 28.4 °F 57% 30.03 in 10.0 mi NNE 11.5 mph 18.4 mph N/A   Overcast
8:55 PM 42.8 °F 35.8 °F 28.4 °F 57% 30.01 in 10.0 mi NNE 13.8 mph 18.4 mph N/A   Overcast
9:15 PM 42.8 °F 36.2 °F 30.2 °F 61% 30.01 in 10.0 mi NNE 12.7 mph 19.6 mph N/A   Overcast
9:35 PM 42.8 °F 36.6 °F 30.2 °F 61% 30.00 in 10.0 mi North 11.5 mph - N/A   Mostly Cloudy
9:55 PM 42.8 °F 37.0 °F 30.2 °F 61% 30.00 in 10.0 mi North 10.4 mph - N/A   Mostly Cloudy
10:15 PM 42.8 °F 37.0 °F 30.2 °F 61% 29.99 in 10.0 mi North 10.4 mph - N/A   Scattered Clouds
10:35 PM 42.8 °F 36.6 °F 30.2 °F 61% 29.98 in 10.0 mi North 11.5 mph - N/A   Mostly Cloudy
10:55 PM 42.8 °F 35.8 °F 30.2 °F 61% 29.97 in 10.0 mi North 13.8 mph 19.6 mph N/A   Mostly Cloudy
11:15 PM 42.8 °F 36.2 °F 30.2 °F 61% 29.97 in 10.0 mi North 12.7 mph - N/A   Mostly Cloudy
11:35 PM 42.8 °F 36.6 °F 30.2 °F 61% 29.95 in 10.0 mi North 11.5 mph - N/A   Mostly Cloudy
11:55 PM 42.8 °F 37.0 °F 30.2 °F 61% 29.93 in 10.0 mi North 10.4 mph - N/A   Overcast